Погода в Курице

Россия / Курская область     51°53′33″N   36°02′06″E
темп.,
°C
ветер,
м/с
пор.,
м/с
влажн.,
%
обл.,
%
осадки,
мм/ч
давл.,
гПа
погр.,
м
21 января, чт
чт2100:00−19ююз33960 0.0 102622
03:00−19ююз44971 0.0 102678
06:00−19ю499466 0.0 1026140
09:00−18ю5129172 0.0 1024201
12:00−12ююз7149394 0.0 1023357
15:00−8ююз8179497 0.8 1020546
18:00−5юз81692100 1.1 1019559
21:00−3юз81495100 1.1 1018569
22 января, пт
пт2200:00−2зюз71296100 0.0 1018540
03:00−1юз61195100 0.0 1018453
06:00−1юз51194100 0.0 1017498
09:000ююз6109598 0.0 1018510
12:000ююз71197100 0.0 1017520
15:00+1ююз61197100 0.0 1016520
18:00+1ююз61196100 0.0 1016509
21:00+1ююз61299100 0.0 1015510
23 января, сб
сб2300:00+1ююз61399100 0.0 1015512
03:00+1ююз61398100 0.0 1014509
06:00+1ююз71297100 0.0 1014492
09:00+2ююз61398100 0.0 1014385
12:00+1ю512100100 0.0 1014383
15:00+2ююз512100100 0.0 1013317
18:00+2ю51199100 0.0 1013296
21:00+2ю51199100 0.0 1013283
24 января, вс
вс2400:00+2ю51299100 0.0 1013309
03:00+2ю51099100 0.0 1013276
06:00+1ю61299100 0.0 1012323
09:00+1ю61399100 0.0 1012386
12:00+2ююв615100100 0.1 1012420
15:00+2ююв71498100 0.1 1011349
18:00+2ююв81687100 0.0 1010436
21:00+1ююв81582100 0.0 1010506
25 января, пн
пн2500:00+1ююв81594100 0.5 1009482
03:00+1ююв61397100 0.6 1009369
06:00+2ююв61398100 0.1 1009399
09:00+2ююв61399100 0.4 1010377
12:00+2ююв511100100 0.0 1011296
15:00+2ююв511100100 0.0 1010336
18:00+3юв61399100 0.0 1009291
21:00+2юв81598100 0.3 1008445